• In Austria
  • List of Countries
  • For 7 days
  • Water Temperature
  • Satellite Maps
  • Weather Map
  • News
  • Weather Widgets
  • user-avatar
    Login

    Hourly Weather Kembé

    Today, 21 October, Sunday

    Time Temperature Precipitation Wind Pressure Humidity
    00:00 +25°C° 0.4 mm 1 mps 711 mmHg 82%
    01:00 +24°C° 0.4 mm 1 mps 711 mmHg 84%
    02:00 +22°C° 0.3 mm 0 mps 711 mmHg 87%
    03:00 +21°C° 0.3 mm 0 mps 711 mmHg 89%
    04:00 +21°C° 0.3 mm 0 mps 711 mmHg 91%
    05:00 +24°C° 0.4 mm 1 mps 711 mmHg 90%
    06:00 +24°C° 0.4 mm 1 mps 712 mmHg 90%
    07:00 +25°C° 0.4 mm 1 mps 712 mmHg 90%
    08:00 +27°C° 0.3 mm 1 mps 713 mmHg 80%
    09:00 +29°C° 0.3 mm 2 mps 713 mmHg 69%
    10:00 +32°C° 0.3 mm 2 mps 713 mmHg 59%
    11:00 +34°C° 0.1 mm 2 mps 712 mmHg 53%
    12:00 +34°C° 0.1 mm 1 mps 712 mmHg 47%
    13:00 +36°C° 0.1 mm 1 mps 711 mmHg 41%
    14:00 +35°C° 0 mm 1 mps 711 mmHg 45%
    15:00 +34°C° 0 mm 1 mps 710 mmHg 49%
    16:00 +33°C° 0 mm 1 mps 710 mmHg 53%
    17:00 +31°C° 0.1 mm 1 mps 710 mmHg 59%
    18:00 +27°C° 0.1 mm 0 mps 710 mmHg 64%
    19:00 +25°C° 0.1 mm 0 mps 710 mmHg 70%
    20:00 +25°C° 0.4 mm 0 mps 711 mmHg 74%
    21:00 +24°C° 0.4 mm 0 mps 711 mmHg 77%
    22:00 +23°C° 0.4 mm 0 mps 711 mmHg 81%
    23:00 +23°C° 0.1 mm 0 mps 711 mmHg 83%

    Tomorrow, 22 October, Monday

    Time Temperature Precipitation Wind Pressure Humidity
    00:00 +22°C° 0.1 mm 0 mps 711 mmHg 84%
    01:00 +22°C° 0.1 mm 0 mps 710 mmHg 86%
    02:00 +22°C° 0.1 mm 0 mps 710 mmHg 87%
    03:00 +21°C° 0.1 mm 0 mps 710 mmHg 89%
    04:00 +21°C° 0.1 mm 0 mps 710 mmHg 91%
    05:00 +22°C° 0 mm 0 mps 711 mmHg 87%
    06:00 +24°C° 0 mm 0 mps 712 mmHg 84%
    07:00 +25°C° 0 mm 0 mps 712 mmHg 80%
    08:00 +28°C° 0 mm 0 mps 712 mmHg 69%
    09:00 +32°C° 0 mm 1 mps 713 mmHg 57%
    10:00 +35°C° 0 mm 1 mps 713 mmHg 46%
    11:00 +36°C° 0 mm 1 mps 712 mmHg 42%
    12:00 +38°C° 0 mm 2 mps 711 mmHg 38%
    13:00 +39°C° 0 mm 2 mps 710 mmHg 34%
    14:00 +38°C° 0 mm 2 mps 710 mmHg 37%
    15:00 +36°C° 0 mm 1 mps 709 mmHg 40%
    16:00 +35°C° 0 mm 1 mps 709 mmHg 44%
    17:00 +33°C° 0 mm 1 mps 709 mmHg 48%
    18:00 +29°C° 0 mm 0 mps 710 mmHg 52%
    19:00 +27°C° 0 mm 0 mps 710 mmHg 56%
    20:00 +26°C° 0 mm 0 mps 710 mmHg 58%
    21:00 +26°C° 0 mm 0 mps 710 mmHg 60%
    22:00 +25°C° 0 mm 0 mps 710 mmHg 62%
    23:00 +25°C° 0 mm 0 mps 710 mmHg 64%

    Day after tomorrow, 23 October, Tuesday

    Time Temperature Precipitation Wind Pressure Humidity
    00:00 +24°C° 0 mm 0 mps 710 mmHg 67%
    01:00 +23°C° 0 mm 0 mps 710 mmHg 69%
    02:00 +23°C° 0 mm 0 mps 710 mmHg 71%
    03:00 +22°C° 0 mm 0 mps 710 mmHg 73%
    04:00 +22°C° 0 mm 0 mps 711 mmHg 75%
    05:00 +23°C° 0 mm 0 mps 711 mmHg 73%
    06:00 +24°C° 0 mm 0 mps 712 mmHg 70%
    07:00 +25°C° 0 mm 0 mps 713 mmHg 68%
    08:00 +27°C° 0 mm 0 mps 713 mmHg 61%
    09:00 +32°C° 0 mm 1 mps 713 mmHg 54%
    10:00 +34°C° 0 mm 1 mps 714 mmHg 46%
    11:00 +35°C° 0 mm 1 mps 713 mmHg 43%
    12:00 +36°C° 0 mm 1 mps 712 mmHg 40%
    13:00 +37°C° 0 mm 1 mps 711 mmHg 36%
    14:00 +36°C° 0 mm 1 mps 711 mmHg 41%
    15:00 +35°C° 0 mm 1 mps 710 mmHg 45%
    16:00 +34°C° 0 mm 1 mps 710 mmHg 50%
    17:00 +32°C° 0 mm 1 mps 710 mmHg 55%
    18:00 +30°C° 0 mm 1 mps 711 mmHg 59%
    19:00 +28°C° 0 mm 1 mps 711 mmHg 64%
    20:00 +28°C° 0 mm 1 mps 711 mmHg 67%
    21:00 +27°C° 0 mm 1 mps 711 mmHg 71%
    22:00 +26°C° 0 mm 1 mps 712 mmHg 74%
    23:00 +26°C° 1 mm 1 mps 711 mmHg 81%

    24 October, Wednesday

    Time Temperature Precipitation Wind Pressure Humidity
    00:00 +25°C° 1 mm 1 mps 711 mmHg 88%
    01:00 +24°C° 1 mm 1 mps 711 mmHg 95%
    02:00 +24°C° 0 mm 1 mps 711 mmHg 95%
    03:00 +24°C° 0 mm 1 mps 711 mmHg 96%
    04:00 +21°C° 0 mm 0 mps 711 mmHg 96%
    05:00 +22°C° 0 mm 0 mps 712 mmHg 94%
    06:00 +23°C° 0 mm 0 mps 713 mmHg 93%
    07:00 +24°C° 0 mm 0 mps 713 mmHg 91%
    08:00 +26°C° 1.5 mm 0 mps 713 mmHg 83%
    09:00 +28°C° 1.5 mm 0 mps 713 mmHg 75%
    10:00 +32°C° 1.5 mm 1 mps 714 mmHg 66%
    11:00 +32°C° 0.4 mm 1 mps 713 mmHg 61%
    12:00 +33°C° 0.4 mm 1 mps 712 mmHg 56%
    13:00 +34°C° 0.4 mm 1 mps 711 mmHg 51%
    14:00 +33°C° 0.2 mm 1 mps 711 mmHg 56%
    15:00 +31°C° 0.2 mm 1 mps 711 mmHg 61%
    16:00 +30°C° 0.2 mm 1 mps 710 mmHg 67%
    17:00 +29°C° 0.8 mm 1 mps 711 mmHg 74%
    18:00 +27°C° 0.8 mm 1 mps 711 mmHg 82%
    19:00 +25°C° 0.8 mm 1 mps 711 mmHg 90%
    20:00 +25°C° 0 mm 1 mps 712 mmHg 91%
    21:00 +25°C° 0 mm 1 mps 712 mmHg 92%
    22:00 +24°C° 0 mm 1 mps 712 mmHg 94%
    23:00 +24°C° 0.1 mm 1 mps 712 mmHg 95%

    25 October, Thursday

    Time Temperature Precipitation Wind Pressure Humidity
    00:00 +24°C° 0.1 mm 1 mps 711 mmHg 96%
    01:00 +21°C° 0.1 mm 0 mps 711 mmHg 97%
    02:00 +21°C° 0 mm 0 mps 711 mmHg 97%
    03:00 +21°C° 0 mm 0 mps 711 mmHg 97%
    04:00 +21°C° 0 mm 0 mps 710 mmHg 97%
    05:00 +22°C° 0 mm 0 mps 711 mmHg 95%
    06:00 +22°C° 0 mm 0 mps 712 mmHg 93%
    07:00 +23°C° 0 mm 0 mps 713 mmHg 92%
    08:00 +27°C° 0.5 mm 1 mps 713 mmHg 85%
    09:00 +28°C° 0.5 mm 1 mps 713 mmHg 79%
    10:00 +30°C° 0.5 mm 1 mps 713 mmHg 73%
    11:00 +31°C° 0.6 mm 1 mps 712 mmHg 66%
    12:00 +32°C° 0.6 mm 1 mps 712 mmHg 59%
    13:00 +33°C° 0.6 mm 1 mps 711 mmHg 53%
    14:00 +32°C° 0 mm 1 mps 711 mmHg 56%
    15:00 +32°C° 0 mm 1 mps 711 mmHg 59%
    16:00 +31°C° 0 mm 1 mps 711 mmHg 62%
    17:00 +29°C° 0 mm 1 mps 711 mmHg 68%
    18:00 +28°C° 0 mm 1 mps 711 mmHg 73%
    19:00 +26°C° 0 mm 1 mps 711 mmHg 78%
    20:00 +26°C° 0.3 mm 1 mps 711 mmHg 81%
    21:00 +23°C° 0.3 mm 0 mps 711 mmHg 84%
    22:00 +23°C° 0.3 mm 0 mps 711 mmHg 87%
    23:00 +22°C° 0.1 mm 0 mps 711 mmHg 88%

    26 October, Friday

    Time Temperature Precipitation Wind Pressure Humidity
    00:00 +22°C° 0.1 mm 0 mps 710 mmHg 89%
    01:00 +22°C° 0.1 mm 0 mps 710 mmHg 90%
    02:00 +22°C° 0 mm 0 mps 710 mmHg 90%
    03:00 +22°C° 0 mm 0 mps 710 mmHg 91%
    04:00 +21°C° 0 mm 0 mps 710 mmHg 91%
    05:00 +22°C° 0 mm 0 mps 711 mmHg 89%
    06:00 +23°C° 0 mm 0 mps 712 mmHg 87%
    07:00 +24°C° 0 mm 0 mps 712 mmHg 85%
    08:00 +27°C° 0 mm 0 mps 712 mmHg 72%
    09:00 +31°C° 0 mm 0 mps 713 mmHg 60%
    10:00 +34°C° 0 mm 0 mps 713 mmHg 47%
    11:00 +34°C° 0 mm 0 mps 712 mmHg 46%
    12:00 +34°C° 0 mm 0 mps 711 mmHg 44%
    13:00 +36°C° 0 mm 1 mps 710 mmHg 42%
    14:00 +33°C° 0.9 mm 1 mps 710 mmHg 55%
    15:00 +31°C° 0.9 mm 1 mps 709 mmHg 68%
    16:00 +28°C° 0.9 mm 1 mps 709 mmHg 81%
    17:00 +27°C° 3.5 mm 1 mps 709 mmHg 86%
    18:00 +26°C° 3.5 mm 1 mps 710 mmHg 90%
    19:00 +25°C° 3.5 mm 1 mps 710 mmHg 94%
    20:00 +25°C° 0.6 mm 1 mps 711 mmHg 95%
    21:00 +25°C° 0.6 mm 1 mps 711 mmHg 95%
    22:00 +24°C° 0.6 mm 1 mps 711 mmHg 95%
    23:00 +24°C° 0.1 mm 1 mps 711 mmHg 96%
    Show more